Regional Weather Roundup
Issued by NWS

Home | Current Version | Previous Version | Text Only | Print | Product List | Glossary Off
Versions: 1 2 3 4 5 6 7 8 9 10 11 12 13 14 15 16 17 18 19 20 21 22 23 24 25 26 27 28 29 30 31 32 33 34 35 36 37 38 39 40 41 42 43 44 45 46 47 48 49 50

000
ASUS43 KBIS 051310
RWRND

NORTH DAKOTA REGIONAL WEATHER ROUNDUP
NATIONAL WEATHER SERVICE BISMARCK ND
800 AM CDT SUN JUL 05 2015

NOTE: "FAIR" INDICATES FEW OR NO CLOUDS BELOW 12,000 FEET WITH NO
SIGNIFICANT WEATHER AND/OR OBSTRUCTIONS TO VISIBILITY.


NDZ001>003-009>011-017-051400-
NORTHWEST NORTH DAKOTA

CITY           SKY/WX    TMP DP  RH WIND       PRES   REMARKS
WILLISTON      CLOUDY    65  62  90 N9        29.88S FOG
MINOT          RAIN      64  62  93 W9G23     29.88R FOG
MINOT AFB      RAIN      64  64 100 NW12      29.86R
$$

NDZ018>021-031>035-040>046-051400-
SOUTHWEST NORTH DAKOTA

CITY           SKY/WX    TMP DP  RH WIND       PRES   REMARKS
BISMARCK       CLOUDY    70  68  93 NW7       29.80R
DICKINSON      CLOUDY    63  60  90 N16G26    29.85R
GARRISON         N/A     65  62  90 N25G33    29.81R
HETTINGER ARPT TSTM      65  61  87 N14       29.82S FOG
$$

NDZ004>008-012>016-024-026-027-054-051400-
NORTHEAST NORTH DAKOTA

CITY           SKY/WX    TMP DP  RH WIND       PRES   REMARKS
GRAND FORKS    PTSUNNY   70  67  90 S16       29.74F
GRND FRKS AFB  MOSUNNY   69  67  93 S10       29.75S
DEVILS LAKE    CLOUDY    70  63  78 SE8       29.73S
$$

NDZ022-023-025-028>030-036>039-047>053-051400-
SOUTHEAST NORTH DAKOTA

CITY           SKY/WX    TMP DP  RH WIND       PRES   REMARKS
FARGO          SUNNY     73  65  75 SE12      29.76F
JAMESTOWN      MOSUNNY   72  66  81 SW5       29.73R
$$



USA.gov is the U.S. government's official web portal to all federal, state and local government web resources and services.